Regional Weather Roundup
Issued by NWS

Home | Current Version | Previous Version | Graphics & Text | Print | Product List | Glossary On
Versions: 1 2 3 4 5 6 7 8 9 10 11 12 13 14 15 16 17 18 19 20 21 22 23 24 25 26 27 28 29 30 31 32 33 34 35 36 37 38 39 40 41 42 43 44 45 46 47 48 49 50
000
ASUS45 KABQ 020710
RWRNM
WEATHER ROUNDUP FOR NEW MEXICO
NATIONAL WEATHER SERVICE ALBUQUERQUE NM
100 AM MDT THU OCT 02 2014

NOTE: "FAIR" MEANS FEW OR NO CLOUDS BELOW 12,000 FEET AGL WITH NO
       SIGNIFICANT WEATHER OR OBSTRUCTIONS TO VISION.

      THIS PRODUCT IS RELEASED AS TWO VERSIONS.  ONE VERSION NEAR
      THE TOP OF THE HOUR CONTAINING PRELIMINARY DATA FROM ALBUQUERQUE
      AND OTHER STATIONS.  A FINAL VERSION WITH ADDITIONAL DATA IS
      ISSUED ABOUT 10 MINUTES AFTER THE HOUR.

NMZ501-503-504-510>518-020800-
NORTHWEST PLATEAU/NORTHCENTRAL MOUNTAINS

CITY           SKY/WX    TMP DP  RH WIND       PRES   REMARKS
FARMINGTON     CLEAR     49  32  52 W7        30.09R
LOS ALAMOS     PTCLDY    48  37  66 CALM      30.09S
SANTA FE       MOCLDY    52  34  50 N10       30.04S
TAOS           MOCLDY    43  32  65 CALM      30.09S
ANGEL FIRE     FAIR      34  31  88 CALM      30.09F

$$
NMZ402-403-502-505>509-020800-
WESTCENTRAL MOUNTAINS/SOUTHWEST MOUNTAINS

CITY           SKY/WX    TMP DP  RH WIND       PRES   REMARKS
GALLUP         CLEAR     49  34  56 E12       30.14R
GRANTS         CLEAR     43  34  70 N7        30.12R
SILVER CITY    CLEAR     54  36  50 NW10      30.06S

$$
NMZ407-409-411-412-020800-
SOUTHERN DESERTS

CITY           SKY/WX    TMP DP  RH WIND       PRES   REMARKS
LORDSBURG      FAIR      61  34  36 MISG      30.00R
DEMING         CLEAR     60  39  45 W9        29.98S
LAS CRUCES     CLEAR     59  36  42 W10       29.99R
HOLLOMAN AFB   CLEAR     62  35  35 NW8       29.92S
ALAMOGORDO     CLEAR     64  32  29 NE3       29.94S
T OR C         CLEAR     64  33  31 CALM      29.98R

$$
NMZ519>523-020800-
CENTRAL VALLEYS/CENTRAL HIGHLANDS

CITY           SKY/WX    TMP DP  RH WIND       PRES   REMARKS
ALBUQUERQUE    PTCLDY    62  36  37 N9        30.02R
DOUBLE EAGLE   CLEAR     50  35  54 W7        30.05R
MORIARTY ARPT  FAIR      48  33  55 N3        30.04S
CLINES CORNERS PTCLDY    49  34  56 NW10      30.04S
BELEN          NOT AVBL
SOCORRO        FAIR      64  32  29 CALM      29.98R

$$
NMZ524>526-539-540-020800-
SOUTHCENTRAL MOUNTAINS

CITY           SKY/WX    TMP DP  RH WIND       PRES   REMARKS
RUIDOSO        NOT AVBL

$$
NMZ527>531-020800-
NORTHEAST HIGHLANDS/NORTHEAST PLAINS

CITY           SKY/WX    TMP DP  RH WIND       PRES   REMARKS
LAS VEGAS      PTCLDY    51  33  50 W3        30.03S
RATON          MOCLDY    53  32  44 N10       29.99R
CLAYTON        MOCLDY    59  38  45 N17       29.91R

$$
NMZ532>537-020800-
EASTCENTRAL PLAINS

CITY           SKY/WX    TMP DP  RH WIND       PRES   REMARKS
TUCUMCARI      PTCLDY    64  41  42 NW8       29.85R
CANNON AFB     CLEAR     57  44  60 VRB3      29.86S
CLOVIS AIRPORT   N/A     54  43  66 CALM      29.88S

$$
NMZ028-029-538-020800-
SOUTHEAST PLAINS

CITY           SKY/WX    TMP DP  RH WIND       PRES   REMARKS
ROSWELL        CLEAR     57  43  59 SW7       29.84S
CARLSBAD       CLEAR     60  47  61 W7        29.85R
HOBBS          CLEAR     59  46  63 SW7       29.87S


$$


USA.gov is the U.S. government's official web portal to all federal, state and local government web resources and services.